When you browse on this site, cookies collect data to enhance your experience and personalize the content and advertising you see.
Visit our Privacy Policy to learn more. By continuing to use the site, you agree to this use of cookies and data.
  • In Hungary
  • List of Countries
  • For 7 days
  • Water Temperature
  • Satellite Maps
  • Weather Map
  • News
  • Weather Widgets
  • user-avatar
    Login

    Hourly Weather Homutinino

    Today, 21 May, Tuesday

    Time Temperature Precipitation Wind Pressure Humidity
    00:00 +16°C° 0 mm 2 mps 756 mmHg 78%
    01:00 +16°C° 0 mm 2 mps 755 mmHg 80%
    02:00 +15°C° 0 mm 1 mps 755 mmHg 85%
    03:00 +15°C° 0 mm 2 mps 755 mmHg 85%
    04:00 +15°C° 0 mm 2 mps 755 mmHg 85%
    05:00 +16°C° 0 mm 2 mps 755 mmHg 86%
    06:00 +17°C° 0 mm 2 mps 755 mmHg 81%
    07:00 +19°C° 0 mm 2 mps 755 mmHg 76%
    08:00 +21°C° 0 mm 3 mps 755 mmHg 71%
    09:00 +22°C° 0 mm 3 mps 754 mmHg 67%
    10:00 +24°C° 0 mm 3 mps 754 mmHg 63%
    11:00 +26°C° 0 mm 3 mps 754 mmHg 59%
    12:00 +26°C° 0.1 mm 2 mps 754 mmHg 60%
    13:00 +26°C° 0.1 mm 2 mps 754 mmHg 60%
    14:00 +26°C° 0.1 mm 1 mps 753 mmHg 61%
    15:00 +25°C° 0.1 mm 1 mps 753 mmHg 65%
    16:00 +25°C° 0.1 mm 1 mps 753 mmHg 68%
    17:00 +24°C° 0.1 mm 1 mps 753 mmHg 72%
    18:00 +23°C° 0 mm 1 mps 752 mmHg 76%
    19:00 +22°C° 0 mm 1 mps 752 mmHg 79%
    20:00 +21°C° 0 mm 1 mps 752 mmHg 83%
    21:00 +20°C° 0.8 mm 1 mps 752 mmHg 86%
    22:00 +19°C° 0.8 mm 1 mps 752 mmHg 89%
    23:00 +18°C° 0.8 mm 1 mps 752 mmHg 91%

    Tomorrow, 22 May, Wednesday

    Time Temperature Precipitation Wind Pressure Humidity
    00:00 +16°C° 0.4 mm 2 mps 752 mmHg 92%
    01:00 +16°C° 0.4 mm 2 mps 752 mmHg 93%
    02:00 +15°C° 0.4 mm 2 mps 752 mmHg 93%
    03:00 +15°C° 0 mm 2 mps 752 mmHg 94%
    04:00 +15°C° 0 mm 2 mps 751 mmHg 94%
    05:00 +15°C° 0 mm 2 mps 751 mmHg 94%
    06:00 +17°C° 0 mm 2 mps 751 mmHg 90%
    07:00 +18°C° 0 mm 2 mps 751 mmHg 86%
    08:00 +20°C° 0 mm 2 mps 751 mmHg 82%
    09:00 +21°C° 0.4 mm 2 mps 751 mmHg 76%
    10:00 +23°C° 0.4 mm 2 mps 750 mmHg 70%
    11:00 +24°C° 0.4 mm 2 mps 750 mmHg 64%
    12:00 +26°C° 0 mm 1 mps 750 mmHg 59%
    13:00 +27°C° 0 mm 1 mps 750 mmHg 54%
    14:00 +28°C° 0 mm 1 mps 750 mmHg 49%
    15:00 +27°C° 0 mm 1 mps 749 mmHg 50%
    16:00 +27°C° 0 mm 1 mps 749 mmHg 51%
    17:00 +27°C° 0 mm 1 mps 749 mmHg 52%
    18:00 +25°C° 0.2 mm 1 mps 749 mmHg 61%
    19:00 +23°C° 0.2 mm 1 mps 748 mmHg 69%
    20:00 +21°C° 0.2 mm 1 mps 748 mmHg 78%
    21:00 +20°C° 0.8 mm 1 mps 749 mmHg 81%
    22:00 +17°C° 0.8 mm 0 mps 749 mmHg 85%
    23:00 +16°C° 0.8 mm 0 mps 749 mmHg 88%

    Day after tomorrow, 23 May, Thursday

    Time Temperature Precipitation Wind Pressure Humidity
    00:00 +15°C° 0 mm 0 mps 749 mmHg 89%
    01:00 +15°C° 0 mm 0 mps 749 mmHg 89%
    02:00 +15°C° 0 mm 0 mps 749 mmHg 90%
    03:00 +16°C° 0 mm 1 mps 749 mmHg 91%
    04:00 +16°C° 0 mm 1 mps 749 mmHg 92%
    05:00 +15°C° 0 mm 2 mps 749 mmHg 93%
    06:00 +16°C° 0 mm 2 mps 749 mmHg 91%
    07:00 +17°C° 0 mm 3 mps 749 mmHg 89%
    08:00 +18°C° 0 mm 3 mps 750 mmHg 87%
    09:00 +17°C° 0 mm 4 mps 750 mmHg 86%
    10:00 +17°C° 0 mm 4 mps 750 mmHg 86%
    11:00 +15°C° 0 mm 4 mps 750 mmHg 85%
    12:00 +18°C° 0 mm 4 mps 750 mmHg 78%
    13:00 +19°C° 0 mm 4 mps 750 mmHg 72%
    14:00 +21°C° 0 mm 4 mps 751 mmHg 66%
    15:00 +21°C° 0 mm 4 mps 751 mmHg 65%
    16:00 +21°C° 0 mm 4 mps 750 mmHg 63%
    17:00 +21°C° 0 mm 4 mps 750 mmHg 62%
    18:00 +20°C° 0 mm 4 mps 751 mmHg 65%
    19:00 +18°C° 0 mm 3 mps 751 mmHg 68%
    20:00 +16°C° 0 mm 3 mps 751 mmHg 71%
    21:00 +14°C° 0 mm 3 mps 751 mmHg 68%
    22:00 +14°C° 0 mm 3 mps 752 mmHg 65%
    23:00 +13°C° 0 mm 3 mps 752 mmHg 63%

    24 May, Friday

    Time Temperature Precipitation Wind Pressure Humidity
    00:00 +12°C° 0 mm 3 mps 752 mmHg 63%
    01:00 +12°C° 0 mm 3 mps 752 mmHg 64%
    02:00 +11°C° 0 mm 3 mps 752 mmHg 64%
    03:00 +11°C° 0 mm 3 mps 752 mmHg 66%
    04:00 +11°C° 0 mm 3 mps 752 mmHg 68%
    05:00 +11°C° 0 mm 3 mps 752 mmHg 69%
    06:00 +12°C° 0 mm 3 mps 752 mmHg 69%
    07:00 +14°C° 0 mm 3 mps 751 mmHg 69%
    08:00 +16°C° 0 mm 3 mps 751 mmHg 68%
    09:00 +18°C° 0.1 mm 3 mps 751 mmHg 68%
    10:00 +19°C° 0.1 mm 3 mps 751 mmHg 67%
    11:00 +21°C° 0.1 mm 4 mps 751 mmHg 67%
    12:00 +21°C° 1 mm 3 mps 750 mmHg 71%
    13:00 +21°C° 1 mm 3 mps 750 mmHg 75%
    14:00 +21°C° 1 mm 2 mps 750 mmHg 80%
    15:00 +21°C° 2.4 mm 2 mps 749 mmHg 81%
    16:00 +21°C° 2.4 mm 2 mps 749 mmHg 82%
    17:00 +22°C° 2.4 mm 1 mps 749 mmHg 83%
    18:00 +21°C° 1 mm 1 mps 748 mmHg 86%
    19:00 +20°C° 1 mm 1 mps 748 mmHg 89%
    20:00 +18°C° 1 mm 1 mps 748 mmHg 92%
    21:00 +18°C° 0.1 mm 1 mps 748 mmHg 93%
    22:00 +16°C° 0.1 mm 1 mps 748 mmHg 95%
    23:00 +15°C° 0.1 mm 2 mps 748 mmHg 97%

    25 May, Saturday

    Time Temperature Precipitation Wind Pressure Humidity
    00:00 +15°C° 0.4 mm 2 mps 748 mmHg 97%
    01:00 +14°C° 0.4 mm 2 mps 748 mmHg 98%
    02:00 +14°C° 0.4 mm 2 mps 748 mmHg 98%
    03:00 +13°C° 0.1 mm 2 mps 748 mmHg 97%
    04:00 +13°C° 0.1 mm 2 mps 748 mmHg 97%
    05:00 +12°C° 0.1 mm 2 mps 747 mmHg 96%
    06:00 +13°C° 0.1 mm 2 mps 747 mmHg 95%
    07:00 +13°C° 0.1 mm 2 mps 747 mmHg 94%
    08:00 +13°C° 0.1 mm 2 mps 747 mmHg 92%
    09:00 +14°C° 0.1 mm 2 mps 747 mmHg 89%
    10:00 +14°C° 0.1 mm 2 mps 747 mmHg 86%
    11:00 +15°C° 0.1 mm 2 mps 747 mmHg 82%
    12:00 +17°C° 0 mm 2 mps 747 mmHg 73%
    13:00 +18°C° 0 mm 2 mps 746 mmHg 63%
    14:00 +20°C° 0 mm 2 mps 746 mmHg 54%
    15:00 +20°C° 0 mm 2 mps 745 mmHg 54%
    16:00 +20°C° 0 mm 2 mps 745 mmHg 55%
    17:00 +19°C° 0 mm 2 mps 745 mmHg 56%
    18:00 +18°C° 0 mm 2 mps 745 mmHg 62%
    19:00 +16°C° 0 mm 2 mps 744 mmHg 68%
    20:00 +15°C° 0 mm 2 mps 744 mmHg 75%
    21:00 +13°C° 0 mm 1 mps 744 mmHg 77%
    22:00 +12°C° 0 mm 1 mps 744 mmHg 79%
    23:00 +11°C° 0 mm 1 mps 744 mmHg 81%

    26 May, Sunday

    Time Temperature Precipitation Wind Pressure Humidity
    00:00 +11°C° 0 mm 1 mps 744 mmHg 85%
    01:00 +10°C° 0 mm 1 mps 744 mmHg 88%
    02:00 +9°C° 0 mm 2 mps 743 mmHg 91%
    03:00 +9°C° 0.4 mm 2 mps 743 mmHg 93%
    04:00 +10°C° 0.4 mm 2 mps 743 mmHg 94%
    05:00 +10°C° 0.4 mm 3 mps 743 mmHg 96%
    06:00 +10°C° 0.1 mm 3 mps 743 mmHg 94%
    07:00 +10°C° 0.1 mm 3 mps 743 mmHg 92%
    08:00 +11°C° 0.1 mm 3 mps 743 mmHg 91%
    09:00 +12°C° 0 mm 3 mps 742 mmHg 84%
    10:00 +13°C° 0 mm 3 mps 742 mmHg 77%
    11:00 +13°C° 0 mm 3 mps 742 mmHg 69%
    12:00 +13°C° 0.2 mm 3 mps 742 mmHg 72%
    13:00 +13°C° 0.2 mm 4 mps 741 mmHg 74%
    14:00 +13°C° 0.2 mm 4 mps 741 mmHg 76%
    15:00 +14°C° 0.2 mm 4 mps 741 mmHg 76%
    16:00 +14°C° 0.2 mm 4 mps 741 mmHg 75%
    17:00 +14°C° 0.2 mm 4 mps 740 mmHg 75%
    18:00 +13°C° 0.2 mm 4 mps 740 mmHg 80%
    19:00 +12°C° 0.2 mm 3 mps 740 mmHg 85%
    20:00 +12°C° 0.2 mm 2 mps 740 mmHg 90%
    21:00 +10°C° 0 mm 2 mps 740 mmHg 92%
    22:00 +9°C° 0 mm 2 mps 740 mmHg 94%
    23:00 +8°C° 0 mm 2 mps 740 mmHg 96%
    Show more